Namest Nad Oslav, Czech Republic

1:15 AM CET on December 13, 2019 (GMT +0100)
Namest

Weather History for LKNA - August, 2019

Change the Weather History Date:

Friday, August 23, 2019

  Actual Average Record
Temperature  
Mean Temperature 66 °F -  
Max Temperature 78 °F - - ()
Min Temperature 55 °F - - ()
Cooling Degree Days 2    
Growing Degree Days 16 (Base 50)    
Moisture  
Dew Point 55 °F    
Average Humidity 63    
Maximum Humidity 94    
Minimum Humidity 32    
Precipitation  
Precipitation 0.00 in - - ()
Sea Level Pressure  
Sea Level Pressure 30.28 in    
Wind  
Wind Speed 6 mph ()    
Max Wind Speed 9 mph    
Max Gust Speed -    
Visibility 14.1 miles    
Events      
T = Trace of Precipitation, MM = Missing Value Source: Averaged Metar Reports

Daily Weather History Graph

Daily Weather History Graph

Search for Another Location

Airport or City:

Astronomy

Aug. 23, 2019 Rise Set
Actual Time 5:58 AM CEST 7:57 PM CEST
Civil Twilight 5:23 AM CEST 8:31 PM CEST
Nautical Twilight 4:41 AM CEST 9:13 PM CEST
Astronomical Twilight 3:54 AM CEST 10:00 PM CEST
Moon 11:32 PM CEST (8/23) 1:55 PM CEST (8/23)
Length of Visible Light 15h 07m
Length of Day
13h 59m
Waning Gibbous, 52% of the Moon is Illuminated
Aug 23
Waning Gibbous
Aug 23
Last Quarter
Aug 30
New
Sep 6
First Quarter
Sep 14
Full

Hourly Weather History & Observations

Time (CEST) Temp. Dew Point Humidity Pressure Visibility Wind Dir Wind Speed Gust Speed Precip Events Conditions
12:00 AM 60.8 °F 55.4 °F 82% 30.33 in - North 4.6 mph - N/A   Clear
1:00 AM 59.0 °F 55.4 °F 88% 30.33 in - NNW 6.9 mph - N/A   Clear
2:00 AM 59 °F 53 °F 75% 30.31 in 12 mi NNW 6.7 mph - -   Clear
2:00 AM 59.0 °F 53.6 °F 82% 30.33 in - NNW 6.9 mph - N/A   Clear
3:00 AM 58 °F 53 °F 79% 30.31 in 12 mi NNW 8.9 mph - -   Clear
3:00 AM 59.0 °F 53.6 °F 82% 30.30 in - NNW 9.2 mph - N/A   Clear
5:00 AM 56 °F 52 °F 83% 30.32 in 12 mi NW 6.7 mph - -   Clear
5:00 AM 57.2 °F 53.6 °F 88% 30.30 in - NW 6.9 mph - N/A   Clear
6:00 AM 55.4 °F 53.6 °F 94% 30.33 in - NNW 8.1 mph - N/A   Clear
7:00 AM 56 °F 53 °F 84% 30.32 in 9 mi NNW 8.9 mph - -   Scattered Clouds
7:00 AM 55.4 °F 53.6 °F 94% 30.33 in - NNW 9.2 mph - N/A   Clear
8:00 AM 59 °F 53 °F 75% 30.32 in 12 mi North 4.5 mph - -   Scattered Clouds
8:00 AM 59.0 °F 53.6 °F 82% 30.33 in - NNW 4.6 mph - N/A   Clear
9:00 AM 63 °F 54 °F 64% 30.31 in 16 mi NNE 4.5 mph - -   Scattered Clouds
9:00 AM 62.6 °F 53.6 °F 72% 30.33 in - NNE 5.8 mph - N/A   Clear
9:55 AM 66.2 °F 53.6 °F 64% 30.33 in 6.2 mi North 5.8 mph - N/A   Partly Cloudy
10:00 AM 66 °F 53 °F 53% 30.31 in 19 mi North 6.7 mph - -   Scattered Clouds
11:00 AM 68 °F 52 °F 47% 30.30 in 19 mi NNW 6.7 mph - -   Scattered Clouds
11:00 AM 68.0 °F 53.6 °F 60% 30.33 in 6.2 mi NNW 5.8 mph - N/A   Partly Cloudy
1:00 PM 73.4 °F 55.4 °F 53% 30.30 in 6.2 mi Variable 2.3 mph - N/A   Partly Cloudy
1:55 PM 75.2 °F 55.4 °F 50% 30.30 in 6.2 mi Variable 2.3 mph - N/A   Unknown
2:00 PM 75 °F 54 °F 38% 30.24 in 19 mi SE 4.5 mph - -   Scattered Clouds
2:00 PM 75.2 °F 55.4 °F 50% 30.30 in - Variable 2.3 mph - N/A   Clear
3:00 PM 77 °F 54 °F 35% 30.22 in 19 mi South 4.5 mph - -   Scattered Clouds
3:00 PM 77.0 °F 55.4 °F 47% 30.27 in - South 4.6 mph - N/A   Clear
4:00 PM 78 °F 54 °F 32% 30.20 in 19 mi East 4.5 mph - -   Scattered Clouds
5:00 PM 78.8 °F 55.4 °F 44% 30.27 in - SE 5.8 mph - N/A   Clear
6:00 PM 76 °F 56 °F 40% 30.19 in 19 mi ESE 6.7 mph - -   Scattered Clouds
6:00 PM 77.0 °F 57.2 °F 50% 30.24 in - ESE 8.1 mph - N/A   Clear
7:00 PM 75 °F 57 °F 43% 30.19 in 19 mi ESE 6.7 mph - -   Scattered Clouds
7:00 PM 75.2 °F 57.2 °F 53% 30.24 in - ESE 6.9 mph - N/A   Clear
8:00 PM 72 °F 58 °F 51% 30.20 in 19 mi East 4.5 mph - -   Scattered Clouds
8:00 PM 73.4 °F 57.2 °F 57% 30.24 in - ESE 5.8 mph - N/A   Clear
9:00 PM 70 °F 58 °F 57% 30.23 in 19 mi East 6.7 mph - -   Scattered Clouds
9:07 PM 71.6 °F 59.0 °F 64% 30.27 in 6.2 mi East 5.8 mph - N/A   Partly Cloudy
10:00 PM 69 °F 59 °F 62% 30.24 in 19 mi East 6.7 mph - -   Scattered Clouds
11:00 PM 67 °F 59 °F 67% 30.23 in 16 mi ENE 4.5 mph - -